Location: Unspecified
(0.0000°N, 0.0000°E)
Time: 15:28:34
(UTC+00:00)

Vanguard 3 - All Passes

Search period start: 12 April 2021 00:00
Search period end: 22 April 2021 00:00
Orbit: 508 x 3262 km, 33.3° (Epoch: 11 April)

Date Brightness Start Highest point End Pass type
(mag) Time Alt. Az. Time Alt. Az. Time Alt. Az.
12 Apr - 00:27:41 10° WSW 00:34:10 45° NW 00:38:20 10° NE night (unlit)
12 Apr - 09:23:54 10° NNW 09:31:59 31° NE 09:44:34 10° E daylight
12 Apr - 11:34:05 10° NW 11:46:09 88° SW 12:05:32 10° SE daylight
12 Apr - 13:48:58 10° W 14:03:44 41° SSW 14:21:52 10° SE daylight
12 Apr - 16:11:54 10° WSW 16:24:39 20° SSW 16:36:39 10° SSE daylight
12 Apr - 18:38:47 10° SSW 18:47:00 15° S 18:53:48 10° SSE visible
12 Apr - 20:56:10 10° SSW 21:05:47 24° SSE 21:12:12 10° ESE visible
12 Apr - 23:11:09 10° SW 23:20:15 76° SSE 23:25:24 10° ENE night (unlit)
13 Apr - 01:29:42 10° WNW 01:31:25 12° NW 01:32:58 10° NNW night (unlit)
13 Apr - 08:12:53 10° N 08:17:03 14° NE 08:22:19 10° ENE daylight
13 Apr - 10:20:19 10° NW 10:30:11 62° NE 10:47:04 10° ESE daylight
13 Apr - 12:32:42 10° WNW 12:45:55 56° SSW 13:05:08 10° SE daylight
13 Apr - 14:51:16 10° WSW 15:05:22 27° SSW 15:20:34 10° SSE daylight
13 Apr - 17:17:45 10° SW 17:27:54 16° S 17:36:48 10° SSE daylight
13 Apr - 19:39:04 10° SSW 19:48:56 19° SSE 19:56:12 10° SE visible
13 Apr - 21:54:39 10° SW 22:05:27 44° SSE 22:11:40 10° E visible
14 Apr - 00:11:01 10° WSW 00:17:50 36° NW 00:22:12 10° NNE night (unlit)
14 Apr - 09:07:31 10° NNW 09:15:07 34° NE 09:27:29 10° E daylight
14 Apr - 11:17:50 10° WNW 11:29:00 79° SW 11:47:39 10° SE daylight
14 Apr - 13:33:00 10° W 13:46:42 36° SSW 14:04:05 10° SE daylight
14 Apr - 15:56:01 10° SW 16:08:11 19° SSW 16:19:58 10° SSE daylight
14 Apr - 18:20:44 10° SSW 18:30:53 17° S 18:39:04 10° SE visible
14 Apr - 20:37:55 10° SSW 20:49:37 30° SSE 20:57:01 10° E visible
14 Apr - 22:53:49 10° SW 23:03:57 85° NW 23:09:32 10° NE visible
15 Apr - 07:56:16 10° N 08:00:33 15° NE 08:06:08 10° ENE daylight
15 Apr - 10:04:03 10° NW 10:13:10 70° NE 10:29:25 10° ESE daylight
15 Apr - 12:16:38 10° W 12:28:52 49° SSW 12:47:08 10° SE daylight
15 Apr - 14:35:35 10° WSW 14:48:40 24° SSW 15:03:09 10° SSE daylight
15 Apr - 17:00:52 10° SW 17:11:42 17° S 17:21:16 10° SE daylight
15 Apr - 19:20:41 10° SSW 19:32:44 24° SSE 19:41:15 10° ESE visible
15 Apr - 21:36:47 10° SW 21:49:10 56° SSE 21:56:00 10° ENE visible
15 Apr - 23:54:22 10° W 00:01:26 30° NW 00:06:00 10° NNE night (unlit)
16 Apr - 08:51:12 10° NNW 08:58:20 39° NE 09:10:19 10° ESE daylight
16 Apr - 11:01:44 10° WNW 11:12:02 69° SSW 11:29:41 10° SE daylight
16 Apr - 13:17:14 10° W 13:29:52 31° SSW 13:46:12 10° SSE daylight
16 Apr - 15:40:06 10° SW 15:51:49 18° S 16:03:22 10° SSE daylight
16 Apr - 18:02:44 10° SSW 18:14:40 20° S 18:24:08 10° SE visible
16 Apr - 20:19:42 10° SW 20:33:19 38° SSE 20:41:36 10° E visible
16 Apr - 22:36:27 10° WSW 22:47:31 69° NW 22:53:34 10° NE visible
17 Apr - 07:39:43 10° N 07:44:03 17° NE 07:49:52 10° E daylight
17 Apr - 09:47:53 10° NW 09:56:18 80° NE 10:11:42 10° ESE daylight
17 Apr - 12:00:47 10° W 12:12:01 42° SSW 12:29:03 10° SE daylight
17 Apr - 14:20:02 10° WSW 14:32:06 22° SSW 14:45:43 10° SSE daylight
17 Apr - 16:43:49 10° SSW 16:55:27 18° S 17:05:49 10° SE daylight
17 Apr - 19:02:24 10° SSW 19:16:24 28° SSE 19:26:01 10° ESE visible
17 Apr - 21:18:55 10° SW 21:32:44 69° SSE 21:40:13 10° ENE visible
17 Apr - 23:37:44 10° W 23:44:56 26° NW 23:49:43 10° NNE night (unlit)
18 Apr - 08:34:57 10° NNW 08:41:36 44° NE 08:53:07 10° ESE daylight
18 Apr - 10:45:46 10° WNW 10:55:14 59° SSW 11:11:38 10° SE daylight
18 Apr - 13:01:41 10° WSW 13:13:12 27° SSW 13:28:15 10° SSE daylight
18 Apr - 15:24:08 10° SW 15:35:30 18° S 15:46:57 10° SE daylight
18 Apr - 17:44:46 10° SSW 17:58:19 23° SSE 18:09:00 10° ESE daylight
18 Apr - 20:01:32 10° SW 20:16:52 46° SSE 20:25:57 10° E visible
18 Apr - 22:19:06 10° WSW 22:30:57 58° NW 22:37:30 10° NE visible
19 Apr - 07:23:15 10° N 07:27:33 19° NE 07:33:32 10° E daylight
19 Apr - 09:31:50 10° NW 09:39:33 88° SW 09:53:57 10° SE daylight
19 Apr - 11:45:06 10° W 11:55:22 35° SSW 12:10:53 10° SE daylight
19 Apr - 14:04:38 10° SW 14:15:41 20° S 14:28:18 10° SSE daylight
19 Apr - 16:26:40 10° SSW 16:39:09 19° S 16:50:23 10° SE daylight
19 Apr - 18:44:12 10° SW 18:59:53 34° SSE 19:10:34 10° E visible
19 Apr - 21:01:04 10° SW 21:16:08 82° SE 21:24:18 10° ENE visible
19 Apr - 23:21:06 10° W 23:28:25 23° NW 23:33:23 10° N visible
20 Apr - 08:18:48 10° NW 08:24:57 51° NE 08:35:53 10° ESE daylight
20 Apr - 10:29:57 10° W 10:38:37 49° SSW 10:53:33 10° SE daylight
20 Apr - 12:46:21 10° WSW 12:56:42 23° SSW 13:10:14 10° SSE daylight
20 Apr - 15:08:03 10° SW 15:19:13 18° S 15:30:39 10° SE daylight
20 Apr - 17:26:51 10° SSW 17:41:49 26° SSE 17:53:39 10° ESE daylight
20 Apr - 19:43:25 10° SW 20:00:13 55° SSE 20:10:10 10° ENE visible
20 Apr - 22:01:44 10° WSW 22:14:16 50° NW 22:21:21 10° NNE visible
21 Apr - 07:06:50 10° N 07:11:05 21° NE 07:17:08 10° E daylight
21 Apr - 09:15:54 10° WNW 09:22:59 75° SSW 09:36:11 10° SE daylight
21 Apr - 11:29:38 10° WSW 11:38:53 29° SSW 11:52:39 10° SSE daylight
21 Apr - 13:49:19 10° SW 13:59:22 18° S 14:10:56 10° SSE daylight
21 Apr - 16:09:25 10° SSW 16:22:43 21° SSE 16:34:54 10° SE daylight
21 Apr - 18:26:03 10° SW 18:43:12 40° SSE 18:54:54 10° E visible
21 Apr - 20:43:14 10° SW 20:59:22 86° NW 21:08:14 10° NE visible
21 Apr - 23:04:33 10° W 23:11:52 20° NW 23:16:59 10° N visible
